Theta_e
352 352 350 349 350 348 343 337 317 324 322 313 312 315 314 328 331 327 327 331 327 334 339 337 333 330 328 324 327 330 332 324 328 315 310 328 346 347 349 350 351 352 351 352 352 354 359 362 365 365 366 366 366 365 365 366 366 365 365 365 365 365 365 364 365 365 365 364 364 364 364 363 363 363 364 364 362 362 362 362 361 361 361 361 362 363 363 363 363 363 362 362 361 360 360 360 360
353 350 350 352 346 343 329 338 320 318 318 313 313 318 320 328 328 325 326 328 331 332 336 335 333 335 335 334 333 332 329 332 334 332 337 344 347 347 351 352 352 351 352 352 353 355 357 362 365 365 366 365 365 365 365 365 365 365 365 365 365 365 365 365 365 365 364 364 363 363 363 364 363 363 363 362 363 362 360 360 360 361 361 361 361 363 362 362 362 362 362 361 360 359 360 359 359
351 349 348 352 345 340 338 334 314 313 311 305 309 317 326 322 323 328 331 333 335 336 338 335 335 335 334 332 328 329 320 336 336 338 338 345 340 344 351 353 354 353 353 353 354 356 357 361 365 366 366 365 365 365 366 365 365 365 365 366 366 366 365 365 364 364 364 364 363 363 363 363 364 362 363 363 361 361 360 360 360 361 361 360 360 361 362 362 362 362 361 361 359 357 357 357 359
352 351 346 346 330 341 327 325 319 315 310 307 308 319 324 325 325 331 335 335 335 335 334 331 329 336 332 327 329 333 330 331 337 337 336 341 342 348 351 353 356 355 355 355 355 357 357 362 365 366 365 366 365 365 365 365 366 366 366 366 365 365 365 365 364 364 364 363 363 363 364 363 363 363 363 362 361 362 362 362 360 360 361 361 361 361 362 363 362 362 361 358 359 358 358 357 357
350 350 353 342 336 325 326 323 320 319 311 310 308 320 327 329 328 330 332 335 336 334 333 332 329 336 338 332 335 325 325 337 338 341 339 344 350 351 352 355 355 355 355 356 358 358 358 364 366 365 365 366 365 365 366 365 365 365 365 365 364 364 364 364 364 364 363 362 363 363 363 363 363 363 362 361 361 362 361 362 362 362 361 361 360 361 361 363 362 362 361 358 359 358 356 358 357
350 349 351 345 330 341 331 319 316 316 319 318 315 319 329 331 331 331 332 334 337 335 334 332 329 330 329 330 334 329 336 328 338 340 342 344 350 352 353 355 355 355 356 357 358 357 358 365 365 365 365 365 365 365 365 364 365 365 365 364 364 364 364 363 364 364 363 363 362 363 362 362 360 360 360 360 361 362 361 361 361 362 361 360 361 361 362 363 362 361 361 361 360 359 357 357 357
342 343 343 340 338 338 321 318 315 316 319 325 320 325 330 333 332 333 330 330 334 335 335 330 333 331 326 331 335 338 342 341 338 340 346 348 351 353 354 354 355 355 356 356 357 357 360 364 365 366 366 365 365 366 365 365 365 364 364 364 364 363 363 364 364 363 363 362 362 362 362 361 363 362 361 361 361 362 362 360 361 361 362 362 361 361 362 362 361 361 360 359 360 357 358 358 359
352 341 336 328 324 327 319 319 317 318 319 328 329 331 333 333 334 333 329 328 327 328 331 332 332 330 327 337 325 338 343 344 343 347 349 350 352 353 354 354 353 354 356 356 357 358 363 364 365 366 365 364 365 366 365 365 365 364 363 364 363 364 362 363 364 363 362 363 362 362 362 362 362 361 361 361 362 362 361 361 361 361 361 361 361 361 362 362 361 360 361 360 358 358 358 357 357
345 342 344 330 321 323 318 317 317 324 323 328 327 337 338 335 335 332 331 332 330 330 329 330 331 325 327 331 330 339 341 345 348 350 349 350 351 352 353 353 353 353 355 355 357 359 361 365 366 365 365 365 365 366 366 365 365 364 363 363 363 363 363 362 363 362 363 363 362 361 362 362 361 362 362 362 361 361 361 361 361 360 360 361 361 361 360 361 360 360 361 361 360 359 359 358 357
341 341 328 326 324 315 315 314 313 317 323 331 329 333 335 337 334 332 330 328 328 329 330 333 332 326 331 327 331 337 340 346 348 347 349 351 352 353 352 353 354 353 354 355 357 360 361 365 366 365 365 365 365 366 365 364 364 363 363 362 363 363 363 363 363 363 363 362 362 361 362 362 362 362 363 363 362 361 361 361 361 361 360 360 360 360 360 359 361 360 360 361 360 359 359 357 358
332 339 339 324 317 314 310 310 314 319 324 329 332 338 337 336 333 332 331 328 330 329 331 334 329 328 330 330 333 344 345 346 345 343 349 351 352 351 352 353 354 354 353 355 358 360 362 362 366 365 365 365 366 365 366 366 364 364 364 364 364 364 363 362 362 363 362 363 363 362 362 362 362 363 362 362 361 361 360 361 361 361 360 360 360 360 360 360 360 361 360 360 359 358 359 358 356
329 330 331 318 315 311 311 311 317 318 326 328 330 336 336 336 335 330 329 325 329 329 329 333 327 333 328 329 332 340 343 344 344 347 349 351 351 352 352 353 354 354 355 356 359 359 361 361 363 365 366 365 366 365 366 366 364 364 365 364 364 363 363 363 363 362 362 364 364 363 363 361 361 362 361 361 361 361 361 361 359 360 361 361 360 361 360 360 361 361 360 360 359 358 358 359 359
332 331 325 319 315 313 316 316 316 320 319 322 328 334 338 334 331 333 330 329 330 328 328 334 335 334 325 328 338 340 339 342 346 348 349 349 350 351 352 352 353 354 356 358 358 359 360 359 361 362 364 365 366 366 365 365 365 365 364 364 363 363 362 363 363 362 363 364 364 364 363 362 362 362 362 362 363 363 363 361 361 362 362 362 361 361 360 360 360 361 361 360 360 359 360 359 360
334 333 326 316 318 315 316 316 317 316 313 321 331 335 336 332 333 337 332 328 329 328 334 337 336 335 330 333 334 335 338 344 346 348 348 349 350 351 351 352 353 354 356 358 358 359 359 359 360 361 362 362 362 364 365 365 365 365 364 363 363 362 363 362 363 363 363 363 363 362 362 362 363 363 363 363 363 363 362 360 361 361 363 361 361 361 360 360 361 361 361 361 361 361 360 359 359
335 336 328 320 316 314 318 314 313 315 313 326 332 333 333 336 339 339 333 328 330 336 338 341 338 332 324 328 328 333 339 343 346 347 348 349 350 351 351 352 353 354 356 357 358 359 358 358 359 360 360 360 361 360 362 363 364 364 364 363 362 363 363 363 362 362 363 362 362 361 361 363 363 364 363 362 363 363 362 362 362 362 362 361 360 360 360 360 360 361 361 361 362 362 361 359 360
340 335 329 320 316 313 315 317 317 315 314 328 334 333 331 334 338 334 335 338 333 338 338 332 339 332 332 332 333 338 342 344 346 347 347 348 349 350 351 351 352 354 355 356 357 358 358 358 357 358 358 359 358 359 361 361 364 364 363 363 362 363 363 362 362 363 363 363 362 362 363 363 361 361 363 363 362 361 361 360 361 361 360 361 360 360 359 360 359 362 362 362 362 361 360 360 360
342 338 323 321 315 314 315 316 315 310 317 330 334 332 328 328 337 338 340 339 332 333 335 337 334 340 334 336 339 342 343 345 346 346 346 346 347 348 349 350 351 352 354 355 356 357 358 357 357 357 357 357 358 359 359 359 363 364 363 363 362 362 361 362 362 363 363 363 363 363 365 362 361 362 363 361 361 364 361 361 361 362 361 360 360 360 359 360 362 362 362 362 361 360 360 359 359
340 326 322 317 319 315 319 320 317 321 324 328 331 330 329 326 331 334 336 333 335 334 334 336 339 338 340 341 343 343 343 342 344 344 344 344 346 345 346 347 349 348 351 353 356 356 357 357 356 356 356 356 357 359 359 360 362 363 359 360 361 362 362 361 363 363 363 362 364 363 364 365 358 360 363 364 362 359 362 360 361 360 360 361 362 362 362 362 362 362 362 362 361 361 363 360 362
331 327 322 315 318 322 327 325 324 322 321 329 330 331 330 328 330 333 329 328 330 329 332 334 334 337 340 341 341 341 341 341 343 343 343 342 343 343 343 346 347 349 350 352 355 356 356 356 356 355 355 356 357 358 359 360 360 360 359 359 361 362 364 365 361 364 358 358 359 361 362 359 360 361 363 365 365 361 362 360 361 362 362 363 363 362 362 361 362 361 361 360 361 363 360 358 357
333 327 320 321 325 325 327 327 326 325 326 327 327 329 328 331 331 335 328 327 329 327 328 330 332 333 336 338 339 339 340 340 342 342 342 342 343 343 343 344 346 348 349 352 354 356 356 356 356 355 355 355 357 357 358 359 359 359 359 359 359 360 359 361 359 358 358 357 358 359 359 362 359 358 362 362 363 363 360 359 362 362 364 363 363 366 363 361 361 361 361 362 366 362 358 360 358
332 328 322 323 327 325 328 329 328 327 329 328 327 328 327 331 332 332 329 326 326 328 333 331 331 334 336 338 338 338 338 339 340 342 342 342 343 344 344 345 346 348 350 352 354 354 356 357 356 355 355 355 356 357 357 357 358 358 358 359 359 359 358 358 358 357 357 357 357 360 358 361 358 358 358 360 360 360 359 359 361 361 361 364 366 359 361 362 362 360 361 362 359 361 359 358 359
329 327 329 327 325 323 328 329 330 328 326 327 326 326 326 333 332 330 329 324 323 328 333 335 336 337 337 337 337 338 337 338 339 341 341 342 342 343 345 345 348 349 351 350 352 354 356 357 356 355 354 355 356 357 357 360 359 357 357 358 358 358 358 357 357 357 357 357 357 360 362 357 357 357 357 358 359 359 359 358 358 359 360 361 363 357 358 360 359 359 360 361 359 360 358 357 359
322 326 329 331 331 325 327 326 331 329 325 326 324 327 330 329 328 331 330 328 330 334 336 337 338 339 340 340 338 336 337 337 338 340 341 341 342 343 344 345 346 347 350 350 353 354 356 357 356 355 354 355 355 356 357 359 357 357 357 358 357 357 358 357 357 357 357 357 357 361 359 357 356 356 357 356 357 358 358 358 357 359 358 358 362 359 359 359 359 358 358 359 359 359 357 355 356
327 322 326 327 331 328 331 329 330 327 325 325 327 329 327 328 323 330 329 332 333 335 338 339 340 341 341 338 338 337 337 337 338 341 342 342 343 344 344 344 346 349 349 349 352 354 356 356 356 355 354 354 354 356 356 357 357 357 357 362 359 359 358 357 356 357 357 357 358 359 362 357 356 355 356 355 355 357 359 358 357 358 358 358 359 362 358 357 358 358 358 357 358 359 358 356 355
321 321 325 326 326 327 326 329 328 329 325 327 328 325 324 328 326 329 328 331 334 336 339 339 339 340 339 338 337 337 337 338 339 341 343 344 345 346 346 346 347 348 347 349 351 353 355 356 356 355 354 354 354 355 355 356 356 357 358 360 358 361 358 358 357 357 356 358 358 358 363 356 356 356 356 356 355 356 357 358 358 357 357 357 358 358 359 357 356 356 358 357 354 356 356 355 355
322 323 325 324 324 326 325 323 324 326 327 327 324 323 325 328 327 327 329 330 334 338 338 338 338 338 337 337 337 337 338 338 339 340 341 344 345 345 345 345 346 346 348 349 351 352 355 356 355 354 354 354 354 355 354 355 356 357 357 359 359 361 358 358 357 356 356 356 356 357 360 358 356 355 356 356 355 355 356 357 359 357 357 357 358 358 358 357 356 356 357 358 356 356 356 355 358
321 322 323 322 322 322 322 319 320 324 325 325 323 322 323 325 324 316 327 331 335 337 336 337 337 336 337 337 337 337 338 338 339 341 342 343 344 344 344 344 345 346 348 348 350 352 355 355 354 355 354 355 354 354 353 354 356 356 356 357 358 358 358 358 357 355 355 356 356 357 358 361 357 356 356 356 356 355 355 357 357 357 356 357 358 357 357 358 356 357 357 358 356 357 357 355 360
320 318 317 319 320 321 321 320 319 322 323 324 324 321 322 322 323 319 327 332 336 334 335 335 335 335 336 336 336 337 339 340 341 341 340 341 342 343 343 343 344 346 347 348 350 352 354 354 354 354 354 355 354 353 354 353 354 355 355 354 355 356 358 357 356 354 356 355 357 357 358 358 361 355 356 355 356 355 355 356 356 356 356 356 358 357 356 357 359 358 359 359 357 359 357 355 358
314 314 310 313 315 314 316 316 318 322 321 325 323 322 318 318 318 323 330 333 335 334 334 334 335 335 335 336 336 337 338 340 341 340 341 342 344 345 344 345 345 345 348 349 350 352 352 353 353 353 353 353 352 352 352 353 353 354 354 353 354 356 356 356 355 353 354 355 356 357 357 357 361 356 355 356 361 356 356 356 355 357 357 356 356 358 358 357 358 359 359 363 358 354 354 355 358
315 314 310 309 309 309 314 317 318 320 322 325 324 308 312 317 320 327 331 332 334 333 332 334 334 335 335 335 336 337 339 340 340 341 342 342 344 346 344 345 347 346 346 348 350 350 353 353 354 352 352 351 351 352 352 352 352 353 354 352 355 354 354 354 354 353 354 355 356 357 357 357 359 357 355 355 358 356 355 355 355 355 356 357 357 359 357 357 357 357 358 359 362 356 353 353 353
305 309 309 303 304 303 314 316 316 318 323 324 325 310 311 316 318 329 331 333 332 330 332 333 333 334 335 335 336 336 338 340 341 342 342 343 344 346 346 346 346 347 347 347 348 350 352 352 353 351 352 350 352 350 352 350 351 352 352 351 352 352 353 353 353 352 352 354 356 356 357 358 359 357 355 355 356 356 354 355 354 355 355 358 358 359 358 358 356 356 360 356 355 354 353 355 353
304 302 300 304 302 305 311 316 318 314 321 325 321 311 313 316 319 329 331 332 332 330 331 332 333 333 334 335 335 336 337 340 342 343 343 343 344 345 346 345 347 346 346 347 348 350 351 352 352 351 351 349 350 350 350 350 350 350 351 353 350 351 352 351 352 352 352 353 356 356 357 358 359 357 355 355 355 355 354 354 354 355 356 359 359 359 359 357 356 354 358 356 353 352 357 352 351
300 301 296 298 303 305 307 310 318 319 321 322 320 310 314 314 321 329 331 330 330 329 330 331 332 333 334 334 335 336 337 338 340 342 343 344 345 346 346 346 346 346 347 347 348 349 350 350 352 350 349 348 349 349 348 348 347 348 349 350 349 350 350 350 351 352 352 353 354 355 357 358 359 357 356 356 355 355 354 354 354 354 358 359 359 358 358 358 355 354 354 358 354 352 353 351 349
295 300 299 299 303 303 302 306 310 318 321 316 320 316 313 314 324 329 330 330 329 328 329 330 332 332 333 334 335 335 336 337 338 340 342 344 345 346 347 349 347 347 347 347 348 349 349 350 350 349 349 349 349 348 348 346 346 347 348 348 352 348 349 350 351 352 352 353 354 355 356 358 360 358 357 356 355 355 355 355 354 355 358 359 358 357 357 356 356 355 354 357 354 353 352 349 348
295 296 297 298 301 301 301 303 308 317 320 317 317 316 317 316 324 328 329 330 328 327 329 330 331 332 333 333 334 335 336 336 338 340 342 343 344 345 346 347 347 347 347 347 348 349 349 349 350 350 349 349 349 349 348 346 345 345 346 347 348 348 348 349 351 351 352 353 354 355 356 358 361 358 357 357 355 356 356 355 355 357 359 358 357 356 356 358 357 354 355 355 357 353 354 351 349
299 299 298 298 299 301 301 305 310 318 315 315 315 314 316 315 322 327 328 329 327 327 329 329 330 331 332 332 333 334 335 336 339 341 342 343 344 345 345 347 347 347 347 347 348 348 348 349 349 349 349 349 349 349 349 345 343 343 342 345 345 347 347 349 350 350 352 352 355 355 357 358 359 359 357 357 355 356 356 356 356 358 359 358 355 355 355 357 356 354 354 355 354 358 355 351 348
301 301 301 300 300 301 303 305 308 319 315 314 315 316 317 316 321 326 328 329 327 327 327 327 328 330 331 331 332 333 334 336 339 341 342 343 343 345 345 346 347 347 346 346 346 347 348 348 348 347 348 349 348 347 347 345 342 340 341 342 342 345 346 348 349 350 351 353 355 356 357 358 358 358 358 356 355 358 357 357 357 358 359 358 356 355 356 358 357 355 357 360 353 351 353 347 343
300 299 299 299 300 300 305 305 309 315 315 312 315 315 316 315 321 326 328 327 325 326 326 326 327 329 330 330 331 333 334 337 338 339 341 342 343 344 345 345 347 344 345 346 345 346 347 348 347 347 348 348 348 348 348 347 345 343 341 340 342 343 345 347 347 349 350 353 356 356 357 358 358 358 360 357 356 356 356 356 357 357 358 358 357 357 356 360 361 358 356 356 355 351 350 350 342
300 298 298 296 297 300 303 304 308 310 316 311 313 313 314 316 318 325 327 327 327 328 328 328 327 328 329 330 330 332 333 334 336 338 339 341 342 343 344 344 345 346 346 345 346 346 346 347 348 348 348 348 348 349 348 347 347 347 344 342 342 342 347 349 349 350 353 353 355 356 357 358 358 358 360 359 355 356 356 355 355 357 358 359 358 356 358 358 358 357 356 354 352 352 354 353 347
300 299 297 296 299 298 297 303 305 307 314 307 311 311 314 316 317 323 327 328 328 329 329 329 329 328 328 329 330 331 332 333 333 336 337 339 341 342 343 343 344 345 346 346 346 346 346 347 347 348 348 348 349 349 350 349 349 348 347 346 346 346 347 351 351 351 352 354 354 356 357 357 357 357 359 359 357 356 356 354 355 356 358 359 358 356 356 357 356 355 355 355 353 350 349 351 351
301 301 299 299 298 299 300 300 302 305 309 310 307 309 306 310 311 315 324 329 328 329 329 329 330 330 331 331 331 331 331 333 333 335 337 338 339 340 342 344 345 344 345 345 346 346 346 346 347 348 348 348 349 350 350 350 350 348 348 348 350 349 350 349 347 347 349 352 353 354 355 357 357 357 358 360 359 356 356 355 354 355 357 358 358 356 356 356 356 356 356 354 352 351 348 348 350
298 301 302 302 301 300 299 301 301 297 295 302 306 296 296 303 311 313 318 324 325 327 327 327 328 329 330 329 330 331 332 334 334 334 336 337 339 340 342 343 344 344 345 346 347 347 347 347 348 348 348 349 349 349 350 350 348 347 345 344 342 343 343 344 344 344 345 347 351 354 356 357 357 357 357 359 360 359 357 356 355 354 356 358 358 357 357 357 355 355 355 355 353 351 351 348 347
295 299 303 303 302 300 299 299 300 293 293 300 306 297 291 296 305 311 315 320 323 325 325 327 328 329 329 329 330 330 331 332 334 335 336 336 338 339 341 342 344 344 345 347 348 348 348 348 348 348 348 348 349 349 350 351 348 347 346 345 344 343 342 344 347 348 347 348 351 352 355 357 358 357 357 357 359 360 357 356 356 355 355 357 359 357 356 356 356 356 357 355 355 355 349 348 346
297 303 303 301 300 298 298 299 298 294 301 302 303 300 294 292 300 309 314 318 320 322 323 325 327 328 329 330 330 331 331 332 332 334 335 336 338 339 340 342 343 345 346 347 347 348 348 348 348 348 349 350 349 350 350 351 348 347 346 346 346 344 344 344 347 348 349 350 349 350 353 356 358 358 357 357 358 359 358 356 356 356 355 356 359 357 356 357 358 358 358 357 356 356 351 349 346
298 302 303 301 300 300 300 298 296 297 296 294 298 302 296 293 299 307 313 312 315 319 322 324 326 327 329 329 330 331 332 333 333 333 334 335 336 338 341 342 344 346 347 347 347 348 349 349 349 349 348 350 349 350 349 350 350 348 347 346 345 347 346 346 349 350 349 351 348 350 352 354 356 358 358 357 357 358 360 357 356 356 356 356 360 359 358 358 358 358 358 357 355 354 353 350 347
302 301 304 302 301 300 300 296 296 296 294 292 295 298 293 291 294 301 311 311 312 316 321 323 325 327 328 329 330 331 332 333 334 334 335 336 337 338 341 343 344 345 347 348 348 349 349 349 349 348 348 349 350 349 350 349 349 350 347 346 346 346 347 347 348 347 347 348 347 349 351 352 354 356 357 357 357 357 358 359 356 356 356 357 360 360 359 358 358 359 358 358 357 355 354 354 349
302 305 301 299 298 298 300 296 296 295 290 293 297 298 297 290 296 300 305 308 313 316 319 323 325 327 328 329 330 331 331 332 333 334 335 336 337 338 339 340 342 344 346 347 347 348 348 348 348 348 348 349 350 349 349 348 349 349 347 347 346 346 347 346 345 345 346 346 346 348 349 351 353 355 356 357 357 357 358 359 357 356 356 359 360 360 359 359 359 359 359 359 358 356 354 353 354
304 300 300 298 295 295 295 295 295 289 289 294 298 297 298 291 294 297 308 314 316 316 316 319 322 325 327 329 330 331 332 332 333 334 334 335 336 336 337 338 340 343 344 345 346 347 348 348 348 347 348 349 350 349 349 348 349 349 348 347 347 347 347 346 345 344 345 345 346 346 349 351 352 354 355 356 356 357 357 357 359 357 357 357 358 359 360 360 360 360 360 359 358 357 356 354 352
303 299 298 293 286 289 286 288 288 288 288 293 295 297 294 295 299 301 304 310 315 318 319 320 322 324 326 328 330 331 332 333 333 333 334 334 334 335 335 336 338 341 342 344 345 346 347 347 347 347 347 349 349 350 349 349 348 348 348 348 347 348 347 347 346 346 346 346 346 346 347 348 351 352 353 354 355 356 357 356 357 356 356 357 357 358 360 361 361 360 359 359 359 357 356 354 352
300 298 295 292 287 285 282 284 284 284 289 294 295 296 294 295 299 305 305 307 315 319 320 322 323 323 325 327 330 331 332 333 333 334 334 334 335 335 336 336 337 339 342 343 344 346 346 347 347 346 347 348 350 349 349 348 348 349 349 349 348 348 347 347 347 347 346 347 347 346 346 348 349 351 353 353 355 356 357 357 357 357 357 358 358 358 359 360 361 360 360 359 358 359 358 355 354
300 302 299 296 292 287 284 283 285 286 286 292 295 292 289 294 296 304 307 309 311 318 321 322 323 324 325 327 329 331 331 332 333 334 334 334 335 336 336 336 337 338 340 342 344 345 346 346 346 346 346 347 349 349 349 348 348 349 350 350 349 349 348 348 348 348 348 347 347 347 347 348 349 351 352 354 356 356 357 357 357 357 357 358 359 358 359 360 360 361 360 359 360 359 358 356 354
302 303 303 296 295 293 288 287 284 288 288 290 291 291 293 298 300 306 307 308 309 315 319 322 321 323 324 325 325 327 330 331 333 333 334 335 336 336 336 337 337 337 339 341 343 344 344 345 346 346 346 347 348 349 349 349 349 349 350 349 349 350 350 349 348 349 349 348 348 347 347 347 349 351 353 354 355 356 356 356 357 357 358 358 358 359 359 359 359 359 359 359 359 359 357 355 355
298 301 296 298 302 300 294 295 295 292 288 290 290 291 292 295 299 300 301 304 306 310 315 319 320 322 323 323 325 326 328 330 332 333 334 335 336 336 337 337 337 338 338 340 342 344 344 345 345 345 346 347 347 349 348 349 349 349 349 349 349 349 349 348 347 348 348 348 348 348 347 347 348 350 351 354 354 355 356 356 356 356 357 358 358 359 359 359 359 359 358 358 358 359 358 356 355
299 296 299 302 304 302 297 289 289 287 285 285 287 292 291 293 293 300 300 301 305 308 312 316 320 321 321 323 324 326 327 329 332 333 335 335 336 336 337 337 338 338 338 339 342 344 345 345 345 345 345 345 347 348 348 348 349 349 349 349 350 350 349 349 349 348 349 348 347 348 348 347 347 348 350 353 354 354 355 358 356 356 357 357 358 359 359 359 359 358 358 358 359 359 357 357 356
304 301 305 301 291 293 296 293 287 284 284 282 285 290 292 292 294 295 298 300 302 306 310 313 317 319 320 322 324 325 327 329 330 332 333 334 335 336 337 337 338 338 340 340 342 343 344 345 346 345 345 346 346 348 348 349 349 349 349 349 349 349 350 350 350 350 349 348 347 347 347 348 348 349 351 352 352 353 353 355 356 355 356 356 357 358 359 359 359 358 358 357 358 358 357 356 356
308 304 303 303 297 297 293 295 289 290 283 284 288 288 290 294 296 297 299 300 303 304 306 310 315 319 320 322 323 324 326 327 329 331 333 334 335 336 337 337 337 338 338 340 341 342 343 344 345 345 346 347 347 347 349 348 349 349 349 350 350 350 350 350 350 349 348 348 348 348 347 348 348 350 350 351 352 352 353 353 354 355 355 355 356 357 358 359 359 358 358 357 357 357 356 356 356
299 299 298 300 300 298 301 294 292 291 285 283 283 284 289 292 296 300 301 301 302 304 306 308 313 317 321 322 323 324 326 327 328 330 332 334 335 336 337 338 338 339 340 340 340 341 342 344 344 345 345 345 346 347 348 348 349 349 350 349 349 350 349 350 350 349 348 349 349 350 348 348 350 349 350 350 351 352 352 353 353 354 354 354 355 356 357 358 358 358 358 358 358 356 356 356 356
295 298 297 299 298 294 293 291 294 292 291 283 284 287 288 294 301 302 302 303 303 304 306 307 310 314 319 322 323 324 325 327 328 330 332 334 335 336 337 338 338 338 338 339 340 341 342 342 343 344 345 345 345 346 348 348 349 349 349 349 349 349 350 350 349 349 348 348 348 350 350 350 348 350 351 351 351 352 352 352 353 353 354 354 355 355 356 357 357 357 357 357 357 356 355 355 355
Wind_Speed
8 5 6 5 3 3 2 1 2 2 1 2 2 1 2 1 1 1 2 3 3 2 2 6 11 9 3 3 4 5 3 8 1 6 4 1 6 11 8 10 9 8 7 4 3 2 3 9 11 13 13 14 15 15 15 15 15 15 15 15 14 13 13 13 13 12 12 11 11 11 11 10 10 10 10 10 10 11 11 10 11 11 10 10 11 10 10 10 10 10 10 13 13 11 10 10 9
6 6 6 5 3 3 2 2 1 0 1 3 5 1 2 0 2 2 4 3 2 4 4 7 10 6 6 12 9 7 6 7 1 3 4 7 10 8 9 10 10 9 7 5 4 2 2 7 11 13 13 14 14 14 14 15 14 14 14 14 13 13 13 13 13 12 12 11 11 11 10 10 10 10 10 10 10 10 10 10 10 10 10 10 10 10 10 10 10 10 10 12 11 11 10 9 9
7 7 6 2 1 2 1 1 1 1 1 2 4 5 1 1 2 1 4 4 3 7 5 8 10 4 4 5 2 2 1 4 8 6 6 10 14 7 10 10 8 8 8 5 4 2 2 6 10 12 14 14 14 14 14 14 13 13 13 13 13 12 12 12 12 12 11 11 11 11 10 10 10 10 9 9 9 9 10 9 10 10 10 10 10 10 10 9 9 9 11 12 10 9 9 8 9
6 4 6 5 3 1 2 2 1 1 2 3 3 2 1 2 1 2 3 4 6 7 7 11 8 3 4 2 3 6 6 4 3 11 9 9 6 12 12 11 8 7 6 5 4 3 2 9 10 11 13 14 14 14 14 13 12 12 12 12 12 12 12 11 11 11 11 10 10 10 10 10 10 9 9 9 9 9 8 9 9 10 9 9 9 9 9 8 9 9 13 10 8 9 10 10 8
6 4 2 2 1 3 1 1 0 2 3 2 1 2 1 1 1 4 5 4 3 7 8 6 5 3 3 5 1 1 3 5 7 4 7 5 10 12 13 11 9 8 7 6 5 4 3 12 10 12 13 14 14 13 13 13 12 12 12 11 12 12 11 11 11 11 10 10 10 9 9 9 9 8 8 9 9 8 9 9 10 9 9 9 8 8 7 8 9 10 13 11 10 8 9 9 9
5 3 2 2 2 2 1 2 3 4 6 1 1 2 1 1 2 5 6 5 3 4 5 5 3 4 3 3 2 3 8 6 8 4 9 7 14 14 13 11 10 9 7 6 5 4 3 12 12 12 12 13 13 12 12 12 12 11 11 11 11 11 11 11 11 10 10 10 10 9 9 9 8 8 8 9 10 10 9 8 9 9 9 8 8 7 7 7 8 9 11 10 9 9 10 8 9
6 4 3 2 2 1 1 3 4 4 6 4 2 1 2 1 1 6 7 6 2 5 2 4 10 8 6 1 4 3 2 7 8 8 5 13 15 14 13 11 11 10 8 6 5 4 4 13 13 13 13 13 13 12 12 12 11 11 11 11 11 11 11 10 10 10 10 10 10 9 9 9 8 8 8 9 9 9 10 8 9 8 9 8 7 7 6 7 7 8 9 10 9 9 9 8 8
2 1 4 2 2 0 1 4 6 2 4 3 1 2 2 3 3 5 6 6 6 3 3 6 4 6 2 2 4 3 5 3 7 11 13 13 15 14 13 11 12 13 10 6 5 4 9 14 13 13 13 13 13 12 11 11 11 11 11 11 10 10 11 10 10 10 10 10 9 9 9 8 8 9 9 8 8 9 9 7 9 8 8 7 7 7 6 6 6 8 8 9 8 8 9 9 9
4 2 0 0 1 1 3 5 4 2 5 0 0 1 5 4 3 5 4 3 6 4 7 6 2 5 2 7 5 3 4 11 11 14 15 15 15 15 10 12 13 12 9 7 6 4 5 13 13 14 13 13 13 12 12 11 11 11 11 11 10 10 10 9 10 9 9 9 8 8 9 8 9 8 9 8 9 10 8 6 8 8 8 8 6 6 5 6 6 7 8 8 7 9 10 9 9
4 2 1 0 1 3 3 5 2 2 2 0 2 4 4 3 4 2 4 6 5 8 5 4 4 7 8 8 6 3 4 12 14 14 13 14 14 13 12 12 11 13 10 7 6 5 4 12 14 14 13 13 13 12 12 12 11 10 11 11 11 10 10 9 9 9 9 9 8 8 8 9 9 8 8 8 9 9 9 9 7 8 9 8 7 6 5 7 7 8 8 8 7 11 9 8 7
2 2 1 1 1 3 3 5 3 3 1 0 2 3 3 2 3 3 1 6 8 6 6 7 8 10 6 5 3 4 9 13 15 16 14 14 14 13 12 10 10 10 10 9 7 6 6 6 14 14 13 13 13 13 12 12 12 12 10 10 11 10 10 9 9 9 9 8 8 8 7 9 9 8 8 8 8 9 9 9 9 8 9 9 7 7 7 5 7 7 7 7 8 11 8 9 4
1 1 1 1 2 3 4 3 5 3 0 1 1 3 4 3 3 3 2 10 5 8 6 5 6 8 8 5 4 8 11 13 12 14 13 13 11 12 11 9 10 9 9 9 7 6 6 5 7 12 14 13 12 12 12 12 12 11 11 10 10 10 10 9 9 8 9 9 7 7 7 8 9 9 9 10 9 9 8 9 9 9 9 9 7 6 5 5 7 7 7 7 7 8 8 8 8
1 1 2 1 2 2 2 3 4 0 1 2 4 3 2 5 4 3 4 7 7 8 4 3 14 2 5 4 5 9 11 12 11 13 14 11 11 10 10 10 10 10 9 8 8 7 7 4 6 7 10 14 12 12 12 12 12 11 10 10 9 9 9 9 8 8 9 9 7 8 8 8 8 8 9 8 8 8 8 9 10 10 9 8 7 6 6 5 6 8 7 7 7 8 7 6 8
2 1 3 2 0 2 3 3 1 0 1 2 2 4 3 3 2 3 7 9 8 6 4 12 8 9 9 7 7 8 9 12 13 13 11 12 10 10 11 10 10 9 9 8 7 7 6 5 5 5 8 7 6 9 11 12 11 11 10 10 9 9 8 8 8 8 8 8 9 9 8 9 8 8 8 8 8 8 8 8 9 11 10 8 7 7 7 6 6 7 7 6 6 7 6 7 7
2 0 1 1 2 1 2 2 2 2 2 2 4 8 4 2 5 2 7 8 2 6 10 5 8 7 6 11 9 9 12 14 14 13 12 12 11 10 11 9 9 9 8 8 8 8 7 5 6 5 5 5 5 4 4 8 11 11 10 10 9 9 8 7 8 7 7 7 8 8 8 8 8 8 8 8 8 8 8 7 8 9 12 8 8 6 7 7 6 6 7 6 6 6 6 6 6
2 1 1 2 3 0 4 2 1 2 2 3 3 4 6 3 2 4 1 2 4 6 11 4 3 1 7 7 7 15 16 16 14 13 13 13 11 10 10 9 8 8 7 7 8 7 6 5 5 5 5 5 5 5 4 4 9 11 10 10 9 8 8 7 7 7 7 7 8 7 7 5 6 6 8 6 7 7 8 6 7 8 10 10 9 7 8 7 7 7 6 6 6 5 5 5 6
2 0 2 2 5 3 2 2 3 2 1 2 5 6 4 3 0 3 1 6 11 8 1 2 3 2 13 4 15 16 16 15 13 14 13 11 10 9 8 7 7 7 6 7 6 6 7 6 5 5 4 6 6 5 4 4 6 10 9 9 9 8 7 7 7 7 7 7 6 7 6 5 5 4 4 5 5 3 6 6 8 8 8 9 8 9 7 6 6 6 6 6 6 5 5 5 5
2 3 2 4 4 2 4 3 3 0 5 5 7 7 7 5 1 3 4 6 6 5 3 5 7 8 9 13 15 16 16 16 15 16 13 12 10 10 9 8 9 9 8 7 7 6 7 6 6 6 5 6 6 5 4 4 4 6 4 3 4 5 6 6 4 3 4 2 6 5 4 4 4 4 3 5 5 4 3 5 6 7 8 7 7 6 6 5 5 5 5 5 5 5 5 4 4
4 3 3 6 4 6 2 1 2 2 2 8 7 7 6 6 9 5 5 4 9 5 4 8 9 11 14 15 18 17 17 15 15 15 15 14 12 14 12 10 10 9 9 7 7 7 6 6 6 6 6 5 7 5 4 3 3 3 4 3 3 5 4 4 3 4 4 4 5 4 4 4 4 4 3 3 4 5 3 1 5 7 7 6 6 6 5 5 5 5 4 4 4 6 4 3 3
7 3 4 7 5 4 5 3 6 1 5 7 6 6 2 6 6 5 5 7 7 8 8 8 11 13 15 16 17 17 16 15 15 14 15 14 13 13 12 12 11 10 10 9 9 6 7 6 6 6 6 6 6 5 4 4 4 4 4 3 3 3 3 4 4 4 4 4 4 4 4 3 4 3 3 5 5 3 1 2 5 6 6 6 6 4 5 4 4 4 3 5 5 3 2 2 2
4 3 7 4 4 4 7 3 6 1 7 7 7 4 4 8 5 7 9 8 7 6 12 16 16 17 17 18 17 17 17 16 15 14 14 13 11 9 10 10 10 9 8 8 7 7 8 8 8 6 6 5 6 5 5 4 4 4 4 4 4 3 4 4 4 4 3 4 3 4 3 3 3 3 3 3 4 3 3 3 3 3 3 4 4 4 3 2 2 2 2 3 2 3 2 2 2
2 11 7 2 2 3 8 5 6 2 4 5 4 11 6 6 5 7 14 10 9 14 13 10 15 20 21 20 19 17 18 17 17 16 16 16 16 13 11 9 8 7 8 8 9 8 8 8 8 6 6 5 6 6 5 5 5 5 4 4 4 3 4 4 3 3 3 3 3 3 3 3 2 1 3 2 3 3 2 2 3 3 3 2 2 2 2 2 2 2 2 2 2 2 2 1 1
6 6 10 9 7 6 3 4 2 1 2 6 8 5 8 10 6 8 13 14 2 3 10 11 16 18 21 20 19 18 19 19 19 18 17 16 15 13 13 11 11 11 9 9 9 8 8 8 8 8 7 6 6 5 5 5 4 4 4 4 4 3 3 4 3 3 3 3 2 2 3 2 2 0 1 1 2 2 2 2 2 2 2 1 2 2 2 2 2 1 1 1 1 2 2 1 1
8 7 2 9 7 13 9 9 11 8 6 7 5 7 8 9 7 8 11 5 5 9 13 13 13 14 17 19 20 21 20 20 19 17 16 15 15 15 13 12 10 8 8 9 9 8 8 9 9 9 7 7 5 5 5 4 5 5 5 5 4 4 4 4 3 3 3 3 2 2 2 2 2 2 1 1 1 2 1 1 0 1 0 1 1 1 1 1 1 1 1 1 0 1 1 1 1
11 11 11 8 5 5 4 6 8 11 8 2 6 8 8 15 7 9 12 9 6 12 15 15 15 16 15 18 19 18 16 15 14 14 11 9 10 10 10 8 9 9 10 10 9 11 9 8 9 10 8 8 6 5 5 4 5 4 5 5 5 6 4 4 4 3 3 2 2 2 2 2 2 2 2 2 2 2 2 1 1 1 1 2 1 1 0 2 2 1 1 0 0 0 0 1 2
13 18 1 3 3 3 6 8 9 10 6 6 4 7 5 9 6 9 13 9 11 15 16 17 17 17 17 18 19 19 18 19 17 16 16 12 12 13 13 11 11 12 11 10 10 10 9 8 9 10 9 8 7 6 5 5 5 5 5 6 5 5 4 4 4 3 3 3 3 3 3 3 3 3 3 2 3 3 2 2 2 2 2 1 0 2 1 1 2 1 1 1 0 1 1 1 1
4 9 10 11 12 8 7 7 6 7 7 6 7 6 5 4 6 5 7 10 14 16 17 17 19 19 17 16 16 17 18 19 19 15 13 12 13 14 13 12 12 12 11 11 10 9 10 9 10 9 9 9 7 7 6 6 6 7 5 5 5 5 4 4 4 3 3 3 3 4 4 3 3 3 3 3 3 3 3 3 3 2 2 2 1 2 1 1 1 1 2 1 1 1 0 1 2
8 1 3 9 10 11 11 10 12 3 4 6 8 6 1 2 5 7 4 13 18 17 17 18 18 18 16 18 16 14 14 15 13 15 19 17 14 13 14 13 14 13 13 13 10 9 10 12 9 9 9 8 8 8 6 6 6 6 5 4 5 4 4 5 5 4 4 4 4 4 4 4 4 4 4 3 4 3 3 3 2 2 3 2 2 2 2 1 2 2 1 1 0 1 1 1 0
2 3 7 7 4 6 6 10 8 5 6 8 6 1 4 3 9 7 7 13 17 19 18 19 18 17 16 16 14 14 14 15 14 14 17 16 14 13 16 14 14 13 10 12 11 11 12 14 11 11 9 8 9 9 8 6 5 5 5 5 5 4 5 4 5 5 4 4 4 4 5 5 4 5 4 4 4 3 3 3 3 3 3 2 2 2 2 2 2 2 2 1 1 1 2 2 1
6 9 8 7 7 9 12 7 5 7 4 9 8 4 8 9 7 6 11 13 13 15 16 16 14 15 14 15 14 14 13 14 16 16 15 14 14 14 15 14 14 12 10 9 11 12 10 8 8 8 9 10 10 8 7 6 6 5 5 5 4 5 4 5 5 5 4 4 4 5 5 5 5 4 5 5 4 3 3 3 3 3 3 2 2 1 2 1 2 2 2 1 1 1 0 1 1
4 4 3 5 0 6 1 6 6 8 5 12 11 8 6 7 6 7 12 16 17 16 15 15 14 14 14 15 14 14 15 15 17 16 16 15 13 12 13 13 13 12 10 11 14 13 12 10 9 8 10 10 9 9 9 8 6 6 5 5 5 5 5 5 5 4 5 4 4 4 5 5 5 5 5 5 5 4 4 4 4 4 2 2 2 1 2 1 2 2 1 1 0 1 1 0 1
1 2 4 1 7 9 3 3 7 9 1 11 10 7 10 6 7 11 13 15 17 16 15 16 15 15 15 15 15 14 15 14 14 15 16 15 14 13 14 15 14 14 14 13 12 12 13 11 11 10 11 11 11 10 9 8 7 6 5 5 5 5 5 5 5 5 5 4 4 5 5 5 5 6 6 5 5 5 4 5 4 3 3 2 2 1 1 2 2 1 1 1 2 2 0 1 2
2 5 3 2 6 10 4 4 9 11 3 7 13 5 0 4 7 12 13 16 16 15 15 16 17 17 16 15 14 14 13 13 13 15 16 15 13 12 13 14 15 15 13 13 14 13 13 13 13 12 13 13 12 11 9 7 7 7 6 6 6 6 6 5 5 4 4 4 5 5 5 5 6 6 6 5 5 5 5 4 3 3 3 3 2 2 2 2 2 2 2 2 2 1 1 0 1
4 1 6 3 7 3 4 4 4 6 8 4 11 8 5 2 12 13 12 16 15 14 16 16 16 15 16 15 14 15 15 15 17 17 17 16 13 14 13 13 15 14 13 14 14 14 15 13 12 12 11 12 11 10 9 8 7 6 5 5 5 6 6 5 4 5 5 5 5 6 6 6 6 6 6 6 6 5 5 5 3 4 3 3 2 2 3 1 1 2 2 1 1 2 1 2 1
7 3 3 4 3 4 5 2 2 7 7 10 11 12 12 2 8 14 16 15 16 16 17 17 17 16 15 14 15 16 16 17 18 16 17 16 15 14 13 13 14 14 12 14 13 12 11 11 10 12 11 11 10 10 8 7 6 5 4 5 5 5 5 5 5 5 5 5 5 6 6 6 6 6 6 6 6 5 5 4 4 4 3 3 3 3 3 2 1 1 3 2 2 2 2 1 3
7 6 4 3 6 8 7 6 2 6 4 7 9 12 14 4 7 12 13 15 16 16 15 14 15 15 15 15 15 15 16 18 15 15 16 15 14 14 13 13 13 13 13 13 13 13 13 12 11 10 10 11 9 8 7 7 6 7 7 5 5 6 6 6 6 6 5 6 6 6 6 6 6 6 6 6 6 5 5 5 5 4 4 4 4 4 3 3 4 3 3 2 2 2 2 2 4
1 4 5 6 6 5 3 3 3 5 3 9 11 12 12 9 11 13 15 14 12 11 14 14 14 14 15 15 16 17 18 18 15 16 16 16 16 14 13 13 13 14 14 14 14 14 14 14 13 13 11 11 10 9 9 9 9 7 6 8 9 8 7 6 6 6 6 6 6 6 6 6 6 6 6 6 6 5 5 4 4 4 4 4 4 5 5 4 3 3 1 0 2 2 1 1 2
2 2 1 6 5 9 4 3 1 3 5 5 8 9 11 10 10 13 12 13 16 16 15 15 16 16 15 18 17 18 16 8 11 13 15 15 14 15 14 13 14 16 15 15 16 16 15 15 15 13 11 11 12 12 11 10 9 10 9 10 8 8 7 8 8 7 7 6 6 6 6 6 6 7 6 6 6 6 5 4 4 5 4 4 4 3 3 3 3 2 1 1 1 2 2 1 3
9 4 4 3 6 3 5 5 2 2 5 7 4 8 10 9 9 9 14 18 17 17 19 20 19 18 15 16 17 15 12 14 15 17 17 16 18 17 15 14 14 16 16 17 16 15 15 14 14 12 11 12 12 12 11 11 10 9 9 7 8 6 6 6 5 5 5 6 6 6 6 7 7 6 6 6 6 6 6 5 5 4 5 4 4 4 3 4 3 4 3 3 3 1 1 1 4
10 8 6 9 1 2 5 4 2 3 5 2 5 7 9 7 4 10 15 18 15 16 18 18 20 21 20 21 19 17 17 16 18 19 19 18 18 17 16 15 15 15 15 15 15 16 14 13 13 13 13 13 12 12 12 11 10 8 7 4 4 4 3 3 4 4 5 5 7 7 6 7 7 7 6 6 5 6 6 6 5 5 5 4 5 5 4 4 3 3 3 3 2 2 0 1 1
9 10 8 9 6 6 3 3 2 1 4 2 2 2 5 4 4 6 10 12 9 11 12 10 12 16 20 17 15 16 19 19 17 17 17 18 19 20 19 16 15 16 16 16 16 16 13 16 15 15 13 13 12 13 13 10 8 7 5 3 3 3 3 4 4 4 6 6 5 6 8 7 7 6 6 6 6 7 6 5 5 5 5 4 4 5 5 5 5 4 4 4 4 4 3 1 0
8 11 12 10 6 5 4 3 6 6 3 2 6 3 5 5 11 14 9 9 12 11 12 15 17 16 11 11 16 16 15 15 18 20 21 21 20 18 17 17 18 16 17 16 16 16 15 14 15 14 12 12 12 13 13 11 10 10 8 7 7 7 7 6 8 9 7 8 9 6 5 7 6 6 6 6 6 6 6 6 6 5 5 5 5 5 4 3 4 4 5 5 5 3 3 2 2
5 11 11 11 8 4 1 1 1 3 3 3 0 8 6 3 6 11 8 12 18 11 16 19 17 14 13 15 15 16 17 16 15 15 16 18 18 18 18 19 19 18 17 15 15 15 16 15 15 15 13 12 12 12 13 11 10 9 11 11 10 10 11 9 9 9 9 8 5 6 6 6 6 7 6 6 6 6 6 6 6 6 5 5 4 4 4 5 5 5 3 4 5 3 3 4 5
13 2 7 5 6 5 3 2 4 5 2 4 2 2 4 5 7 6 8 16 17 16 17 18 16 15 17 16 16 17 18 18 17 18 19 19 19 21 22 21 19 19 16 15 15 15 16 16 15 15 13 12 11 11 13 12 12 11 11 11 10 10 10 10 9 9 7 5 6 6 6 6 6 6 6 6 6 6 6 6 6 5 5 5 4 5 6 5 4 3 4 4 3 3 5 5 5
3 6 9 7 8 8 6 4 3 3 3 9 2 1 3 4 6 3 8 9 11 16 20 18 18 18 19 18 18 18 19 19 19 17 19 21 21 21 19 18 18 16 15 16 15 15 15 15 15 15 15 13 12 13 13 14 12 12 12 11 10 9 8 7 4 4 5 6 7 5 6 6 6 7 7 7 7 7 6 6 6 6 6 5 5 5 5 5 6 6 5 4 5 4 5 4 3
6 2 9 7 5 4 7 6 4 5 5 13 8 5 5 7 5 2 2 10 14 17 18 17 18 20 20 18 18 18 16 15 16 18 17 18 17 17 17 16 15 16 15 15 14 13 14 14 15 16 15 13 13 14 14 15 15 12 12 11 12 10 8 6 5 6 6 6 7 7 6 6 6 6 6 7 7 7 7 6 6 7 7 6 5 6 5 5 5 5 6 6 5 5 4 4 5
3 6 1 1 4 6 3 5 4 1 13 15 9 8 7 8 7 8 7 9 13 11 9 12 14 16 16 17 18 17 16 16 16 17 17 17 16 15 15 17 17 16 14 15 15 15 15 15 16 17 17 14 14 15 15 16 15 13 12 12 13 12 10 7 7 7 6 6 7 7 7 7 7 7 5 6 7 7 7 6 6 7 6 5 5 6 6 6 5 6 5 5 5 6 5 5 4
6 4 8 1 5 2 3 0 3 8 14 6 8 9 10 11 8 6 9 7 11 13 14 15 16 18 18 17 17 17 17 17 18 16 16 14 13 15 16 18 18 18 16 16 15 15 15 15 15 17 16 15 14 15 15 16 14 14 13 13 13 12 11 9 10 9 9 10 9 9 7 6 6 6 6 6 7 7 7 8 7 6 6 6 7 6 5 5 5 5 4 5 5 5 4 4 4
11 4 7 10 2 3 5 3 10 15 9 2 5 9 3 18 11 5 8 10 11 13 13 16 19 20 21 21 20 17 17 17 16 17 15 14 16 18 19 19 17 18 18 18 17 16 15 15 17 17 17 16 15 15 16 15 14 14 14 14 13 11 11 11 10 9 9 9 8 8 7 8 6 6 6 7 7 8 7 8 7 7 6 6 6 6 5 6 5 5 5 6 5 6 5 6 5
10 11 8 9 7 8 7 5 2 3 2 3 3 5 11 2 8 16 17 14 13 12 13 14 17 20 20 20 19 17 17 17 17 16 16 17 18 18 19 18 18 17 18 18 18 17 15 15 17 18 18 17 15 15 16 15 16 15 14 13 12 11 11 11 10 10 10 9 8 9 9 9 8 9 7 9 7 7 7 8 8 7 7 7 7 6 6 6 6 5 6 6 6 5 5 6 6
10 7 10 10 7 4 7 4 10 8 6 5 5 5 6 10 7 10 18 17 13 11 13 14 15 16 18 19 18 19 18 17 16 16 17 18 19 20 18 18 17 17 19 18 17 17 16 16 17 19 18 17 16 16 15 16 15 15 13 13 12 11 11 10 10 10 9 9 8 9 8 8 8 8 9 8 7 9 8 7 8 7 7 7 6 6 5 6 6 5 5 5 5 4 5 5 5
9 9 7 6 14 6 3 5 4 3 2 3 5 8 4 7 3 3 5 9 12 14 15 13 14 13 13 11 12 14 16 16 15 15 17 18 18 17 16 15 16 16 18 18 19 17 17 17 18 19 19 18 17 16 15 16 15 13 14 13 13 13 11 10 8 8 8 9 9 9 9 9 8 7 7 6 8 8 9 9 7 8 7 6 6 7 6 6 6 6 5 5 6 3 5 6 5
6 8 13 11 6 5 2 3 1 1 2 13 2 5 4 6 6 6 4 5 9 11 14 14 14 14 12 13 15 16 16 16 15 16 16 18 16 16 17 17 16 17 18 20 20 19 19 17 17 18 18 17 18 17 16 15 14 14 14 14 13 12 12 12 12 12 11 9 8 8 8 8 7 6 7 6 7 8 8 8 8 7 7 7 7 7 6 6 6 6 5 6 6 5 5 6 5
5 9 10 4 3 4 6 8 0 5 8 7 1 11 2 5 12 3 3 4 10 10 12 13 15 12 13 14 15 16 17 18 20 20 19 19 18 20 19 18 19 20 21 20 20 18 17 17 18 19 18 18 17 17 16 15 15 15 14 14 14 13 13 13 12 12 10 8 8 8 7 6 9 8 7 6 8 8 8 9 9 8 7 7 8 7 7 6 6 6 6 6 6 5 6 5 5
9 9 8 12 6 11 8 3 9 8 7 2 3 1 7 10 9 2 8 8 11 10 11 10 11 10 14 15 17 17 17 17 17 18 17 15 15 16 16 18 20 19 18 19 18 18 16 16 17 19 20 20 19 16 15 13 14 12 12 13 14 13 12 12 11 10 9 10 10 10 10 9 7 7 7 8 8 8 8 9 9 8 7 8 7 7 7 6 6 6 6 6 5 6 5 6 5
13 7 10 7 4 9 8 10 2 4 4 2 10 3 10 6 6 9 11 11 12 12 10 10 13 15 14 14 15 15 15 15 17 18 18 17 18 20 21 21 20 20 19 19 19 17 19 18 17 17 17 16 16 17 16 15 14 12 12 11 12 13 13 12 11 11 10 12 12 11 10 9 9 7 8 9 9 9 9 9 7 7 8 7 7 7 7 7 6 6 5 6 6 6 6 6 5
9 6 6 6 5 1 5 1 5 6 4 4 2 5 4 7 7 10 13 13 13 13 14 13 13 13 14 15 16 14 16 16 17 18 18 20 20 20 20 20 20 18 14 14 16 19 19 17 18 18 19 18 18 17 16 14 13 13 13 14 14 13 13 12 11 12 12 12 10 10 10 9 7 8 8 9 9 10 10 10 10 9 9 9 9 8 7 6 6 7 6 6 6 7 7 6 5
5 6 8 8 8 3 9 10 1 4 3 4 2 11 1 7 4 11 13 13 14 14 15 15 14 14 14 15 15 14 15 17 18 18 18 19 20 20 19 18 15 14 15 18 18 17 18 20 19 18 18 17 18 17 15 15 13 13 15 14 14 13 12 11 12 12 12 11 10 10 9 8 10 9 9 9 10 9 9 10 9 10 10 10 9 9 7 6 7 7 7 5 6 6 7 7 5
Wind_Direction
156 138 104 126 123 113 129 214 240 170 246 272 326 213 264 197 152 154 119 145 139 208 115 122 130 143 166 176 140 94 350 148 315 149 207 173 130 136 141 133 136 138 143 142 153 191 171 139 138 133 128 125 125 124 123 121 121 120 119 118 117 118 120 120 117 116 117 116 115 114 115 116 116 115 114 115 118 119 117 120 122 119 115 109 106 103 102 100 96 93 93 95 98 102 103 105 110
148 121 128 136 149 151 190 169 271 76 280 308 251 154 251 204 142 197 156 165 199 165 164 136 141 109 59 115 135 119 41 29 27 89 79 116 118 121 137 138 144 144 142 142 149 189 153 142 139 135 130 128 126 125 122 121 120 119 117 116 116 116 115 112 111 111 113 113 115 115 114 115 116 116 116 115 117 120 119 123 119 112 103 100 101 101 97 96 93 89 92 95 106 110 116 119 118
134 137 125 125 65 259 25 103 266 37 301 265 273 209 255 127 202 200 162 138 121 129 138 131 125 82 100 110 94 30 193 64 97 102 109 138 126 153 144 141 142 138 134 137 154 166 151 147 141 137 133 130 128 126 123 121 120 119 117 116 116 115 113 108 109 110 111 113 114 112 111 111 110 112 112 115 118 117 118 116 111 109 106 104 105 100 100 99 95 92 91 101 107 114 113 114 96
129 140 152 162 130 261 218 159 297 269 230 228 293 273 204 176 206 134 84 113 125 126 127 137 134 338 127 85 114 75 90 126 141 136 137 168 157 147 144 142 138 129 127 139 153 163 144 148 143 139 135 131 130 128 125 123 120 118 117 117 116 113 112 112 112 113 114 115 113 112 112 110 110 110 112 114 113 107 106 105 104 101 99 100 99 104 103 102 101 98 89 84 105 115 119 111 115
132 152 172 222 151 207 198 196 288 224 246 197 220 261 228 139 169 115 107 90 107 130 132 123 81 23 77 103 139 137 179 93 137 148 126 120 125 141 141 137 133 132 136 142 151 151 167 145 144 139 135 132 130 129 127 127 124 123 121 120 118 116 117 118 117 117 118 116 115 112 114 113 112 114 115 111 99 97 95 92 91 92 98 105 103 95 104 103 102 99 99 123 111 116 117 118 116
102 117 263 314 217 321 230 225 209 224 243 151 259 259 194 148 101 118 118 113 84 115 116 94 126 149 62 18 3 115 135 145 167 151 145 139 142 141 139 137 134 134 133 138 148 155 159 149 144 139 135 132 131 129 129 128 126 124 124 124 121 122 122 122 120 119 117 119 119 120 119 117 115 112 110 105 104 93 87 90 98 96 97 98 98 104 98 100 101 99 107 108 114 122 112 109 106
148 137 216 260 259 271 326 281 268 235 272 181 218 229 180 152 198 121 127 108 44 70 54 115 113 98 83 145 66 86 251 122 152 157 146 141 138 138 140 137 135 133 132 140 149 151 162 151 147 141 138 135 134 131 131 131 129 128 124 122 125 125 123 117 120 120 122 119 118 118 117 114 110 111 106 98 96 96 96 96 100 110 105 107 114 112 103 106 103 101 101 111 118 112 117 107 97
188 229 169 211 339 89 291 293 277 182 270 182 237 144 149 143 142 127 148 140 150 131 83 136 125 88 60 11 114 46 70 100 106 116 124 137 137 138 140 139 139 144 142 141 148 153 159 152 149 144 140 139 137 134 132 131 127 128 127 125 123 121 117 129 121 123 119 115 122 120 114 116 116 107 100 103 101 92 91 106 114 113 116 115 111 106 100 105 111 105 102 101 106 113 96 90 81
174 261 11 228 271 72 281 252 274 225 260 318 32 163 133 150 152 126 118 97 106 99 135 138 155 97 115 79 71 82 63 99 107 122 134 136 140 142 142 143 144 145 143 146 149 157 155 155 150 146 143 142 140 138 135 134 132 133 130 124 123 127 124 124 123 123 120 121 122 118 118 114 107 108 109 113 114 109 113 111 112 118 120 119 112 111 115 111 124 108 103 103 101 103 101 94 103
175 245 165 88 53 279 318 273 200 242 237 182 142 161 155 158 133 98 115 129 131 120 107 79 65 107 122 95 111 86 119 113 123 127 136 140 140 141 142 143 143 141 144 148 150 151 162 156 152 147 145 145 142 140 139 137 135 130 131 137 134 129 127 128 127 126 125 123 119 119 119 117 113 115 117 115 115 117 125 128 127 121 114 111 116 118 136 129 122 110 105 102 102 85 86 97 106
184 185 318 261 223 288 235 277 247 295 249 13 102 142 173 139 123 122 95 110 126 121 110 106 72 119 114 105 67 91 128 125 136 141 145 141 142 142 139 139 141 145 146 149 151 154 163 157 153 148 146 147 144 144 140 138 135 140 135 134 134 134 135 136 132 130 125 122 121 122 116 121 123 119 120 121 114 126 133 129 125 125 119 121 119 121 107 131 122 111 109 106 107 115 114 101 124
209 150 101 269 234 193 244 254 301 279 246 155 140 174 186 132 108 127 118 123 121 128 145 145 151 128 91 123 130 131 131 134 141 139 142 140 140 139 135 136 142 145 145 148 148 151 159 156 149 149 148 149 146 146 141 139 141 141 142 140 136 135 134 133 130 130 127 125 128 125 123 121 122 132 126 121 130 130 128 126 127 123 115 111 112 107 112 122 114 118 113 113 110 109 111 120 124
265 70 108 74 229 171 250 297 259 202 14 232 157 196 135 130 162 137 99 113 137 123 153 145 140 153 116 128 120 131 139 141 143 142 142 141 138 135 132 136 142 142 147 146 147 154 159 148 144 146 150 150 148 148 145 142 144 143 141 138 136 134 134 132 133 131 127 130 133 124 127 129 124 117 115 117 119 122 124 128 124 119 113 109 114 112 106 106 125 117 117 118 120 119 118 115 102
225 165 125 268 152 236 259 251 282 295 283 209 112 132 153 134 145 130 120 133 155 146 126 134 128 109 91 115 137 150 148 145 146 144 140 135 134 134 134 137 140 143 145 148 152 156 160 145 142 147 149 143 145 150 147 147 148 146 143 141 139 137 135 135 134 133 131 137 136 136 130 125 120 118 117 119 119 116 115 117 118 121 122 120 123 119 124 132 120 118 120 122 119 120 122 107 94
234 134 108 231 295 350 241 204 199 170 258 166 148 142 148 59 111 107 135 133 136 108 118 116 147 107 189 164 160 170 156 152 147 144 138 132 131 131 133 136 139 142 145 151 153 156 160 143 141 138 134 133 134 122 130 155 152 149 146 146 144 140 137 137 136 136 134 135 132 128 128 123 123 122 121 124 120 116 115 115 117 118 121 125 119 121 123 123 123 128 122 118 118 121 119 112 97
229 309 207 288 267 230 268 189 236 108 260 158 148 130 102 69 89 118 47 124 121 125 141 139 233 224 159 192 153 151 150 147 147 142 137 131 129 127 132 138 141 144 148 151 154 160 155 142 138 131 132 130 125 123 133 148 156 153 151 150 148 140 139 141 142 141 142 135 134 133 126 113 110 114 116 105 102 114 116 114 116 117 120 127 129 128 132 143 135 128 122 120 121 119 118 110 105
187 300 262 206 279 165 262 183 159 208 192 101 147 161 139 138 25 51 136 111 127 153 152 118 147 81 153 133 138 137 144 144 144 141 137 134 136 137 137 141 144 148 151 155 159 157 154 149 141 132 137 131 127 129 134 147 162 158 156 154 150 144 145 146 145 144 140 140 136 131 89 66 68 71 65 73 92 86 101 121 120 117 117 122 130 137 132 126 124 121 123 126 125 127 123 114 102
145 204 219 262 231 232 231 213 190 119 137 165 174 185 130 143 185 133 113 58 113 144 88 94 54 73 103 118 125 137 142 147 149 147 148 144 146 147 150 153 156 162 160 155 164 159 154 153 146 140 138 136 132 133 134 146 168 150 133 143 139 148 151 148 123 108 119 81 126 85 73 71 73 79 68 90 83 61 46 108 133 119 116 117 117 114 115 115 117 116 118 125 125 117 84 48 46
197 185 192 245 197 232 191 257 294 150 209 171 177 175 162 166 147 188 128 133 147 126 98 99 89 95 108 121 135 143 149 151 153 153 153 153 156 156 158 159 164 160 164 163 164 165 158 149 147 146 146 143 135 135 141 135 133 114 122 114 139 147 152 114 99 96 56 80 85 89 74 74 74 68 79 94 92 114 126 116 128 119 117 116 117 116 119 119 116 115 116 124 130 91 60 48 44
225 232 223 242 223 266 268 254 266 4 139 153 163 182 147 156 151 176 148 150 168 155 140 117 124 131 133 135 143 148 153 154 156 157 158 159 160 160 160 164 166 169 166 169 165 161 158 159 153 149 153 150 142 144 138 127 122 123 124 124 115 106 97 104 91 93 81 84 94 90 84 80 76 51 103 143 125 101 145 170 139 125 124 120 100 69 85 83 89 90 82 92 73 75 79 61 63
166 215 219 234 229 246 271 250 256 169 155 165 160 147 121 173 160 161 140 124 201 193 178 161 158 148 145 148 150 154 157 159 160 161 161 162 161 160 164 167 168 164 164 156 162 169 165 159 157 152 153 154 147 150 146 140 127 131 132 132 122 110 92 98 97 96 103 88 93 95 87 78 71 55 38 30 79 89 47 24 42 47 52 55 72 71 60 65 52 73 12 60 91 88 87 80 62
131 224 233 241 360 206 277 300 272 222 147 135 148 149 190 148 132 176 159 164 193 201 188 164 150 148 149 155 158 159 162 164 166 166 169 169 167 164 163 163 160 160 160 167 173 168 167 162 158 154 157 160 160 160 151 154 143 146 149 144 124 113 112 109 104 120 111 97 95 104 90 80 62 69 28 42 83 75 63 37 53 56 55 60 44 60 40 37 36 49 56 76 90 90 97 86 52
244 253 240 236 245 276 270 304 301 103 157 149 176 186 122 163 179 191 176 192 197 96 149 148 154 158 154 151 155 163 166 170 171 172 170 170 169 170 170 169 167 169 170 172 171 170 163 162 159 154 164 162 160 149 146 145 146 150 149 149 133 140 126 125 133 130 130 124 107 110 108 101 111 57 41 57 109 75 78 48 66 53 72 62 39 59 16 20 11 18 15 8 108 131 114 112 129
240 255 214 237 219 243 262 281 298 307 158 202 174 146 154 170 179 190 200 187 131 136 133 139 142 147 150 154 165 168 172 173 174 174 174 173 170 170 169 169 168 159 167 168 174 170 167 164 163 160 166 167 163 157 156 151 147 151 161 163 148 161 147 153 154 156 145 152 146 135 123 134 156 151 166 132 172 121 138 113 88 69 61 17 13 42 8 14 32 26 20 10 76 132 150 140 165
226 251 238 263 265 260 273 252 259 267 257 126 143 162 188 183 181 149 215 184 142 133 133 139 144 151 161 160 164 167 168 169 170 170 168 170 169 162 166 167 167 166 174 172 173 175 172 158 165 169 168 171 167 161 166 156 152 150 165 169 166 176 158 177 164 153 168 166 167 166 158 152 155 181 181 189 143 181 177 159 160 251 333 288 31 340 7 335 12 31 20 77 117 134 200 222 168
218 231 246 266 244 251 245 254 245 244 256 156 168 214 207 199 98 188 202 176 144 135 138 144 148 155 165 171 167 168 171 175 170 171 175 169 169 169 177 177 172 178 180 171 173 178 171 156 168 173 173 172 169 167 169 168 168 168 173 184 174 180 171 172 166 179 169 173 198 182 194 164 181 183 191 177 169 197 189 192 201 236 244 283 309 268 292 254 286 5 12 358 142 159 211 252 206
181 242 259 276 268 287 286 268 261 241 235 163 193 225 227 184 184 250 198 164 140 140 146 152 154 163 168 171 172 173 171 174 176 168 166 172 177 179 178 177 180 179 172 178 178 176 175 164 174 175 173 175 169 178 176 181 176 185 181 179 177 187 169 170 189 182 178 188 195 188 196 193 179 189 186 184 180 180 188 195 220 207 248 249 220 255 284 295 321 281 311 319 232 147 206 237 219
285 275 245 243 262 251 253 259 260 247 258 193 184 228 297 195 201 227 187 153 149 148 153 158 161 165 169 172 173 174 177 176 169 171 175 176 183 180 179 182 181 177 180 182 180 172 175 179 170 175 176 174 177 181 180 182 187 185 179 171 189 187 171 189 196 190 200 196 190 192 197 202 191 191 192 187 185 178 191 205 206 204 239 224 217 248 275 306 292 284 295 2 206 132 86 23 213
280 306 276 271 275 266 228 238 244 193 249 184 166 139 248 183 216 205 156 151 154 153 159 162 165 167 167 172 171 175 178 176 178 182 185 185 180 182 183 182 179 179 183 178 175 174 178 182 177 180 172 177 181 183 185 189 182 183 178 185 188 186 192 187 199 203 202 196 194 196 199 198 201 193 199 195 193 186 192 206 212 224 235 241 236 247 280 316 306 310 331 108 48 21 30 11 336
238 244 244 292 291 284 259 222 223 195 228 164 133 225 223 222 230 156 156 151 151 151 160 165 165 167 168 172 176 176 177 178 186 188 185 184 185 185 184 182 181 179 174 176 174 182 178 178 177 174 177 180 185 187 185 185 188 187 187 179 186 186 194 196 203 202 202 199 196 204 201 199 202 201 192 200 189 182 196 204 210 229 229 226 232 217 245 247 282 300 298 116 163 126 103 335 336
176 224 161 220 23 266 266 175 188 194 179 162 162 224 246 227 210 173 160 154 155 164 167 168 166 168 171 175 175 180 184 186 187 186 188 187 185 186 184 180 182 178 173 178 183 180 177 177 176 179 181 181 184 190 189 191 188 185 183 186 188 191 196 206 205 199 200 201 196 209 204 199 206 202 198 195 197 184 195 209 213 227 222 219 241 233 222 219 176 218 235 153 61 81 61 348 302
277 134 235 163 173 264 250 217 168 193 221 169 161 238 238 213 197 175 165 164 161 163 169 171 170 172 173 176 178 182 186 186 187 190 191 189 185 185 184 184 182 181 183 182 178 176 181 179 178 180 179 181 186 189 192 190 188 187 188 191 189 191 198 206 209 204 201 198 200 208 205 203 202 204 201 193 198 194 198 208 216 198 202 199 237 271 154 227 220 227 248 153 246 296 241 14 281
312 189 272 202 167 240 344 243 196 201 165 184 174 224 279 264 181 176 171 165 168 165 171 174 175 175 175 178 180 182 181 187 189 191 192 189 189 187 186 183 184 186 182 179 179 178 182 182 183 182 182 183 184 187 188 188 186 188 189 194 194 190 199 208 209 205 202 199 203 210 206 205 205 201 200 195 200 201 205 211 203 191 180 187 199 194 214 188 196 220 216 198 208 187 131 170 328
266 217 214 198 182 218 234 292 275 212 161 193 207 219 218 228 161 174 178 170 169 171 174 177 177 178 179 179 180 182 186 187 192 191 191 189 187 187 185 186 184 184 185 184 182 181 183 181 184 186 184 183 182 184 186 186 190 187 186 192 193 197 206 205 200 202 208 204 201 212 205 206 205 200 197 194 203 204 203 206 187 178 173 165 179 198 231 193 176 209 232 138 163 95 289 151 143
191 196 199 247 266 206 220 150 264 159 197 186 201 219 232 244 173 172 180 180 174 179 177 178 179 180 180 183 184 186 188 192 196 191 188 188 187 187 185 184 182 184 186 185 183 183 180 182 183 188 184 182 182 181 181 181 179 183 177 184 201 205 211 211 197 202 211 202 204 209 202 204 205 200 197 191 195 200 195 192 186 180 161 160 168 203 242 246 190 163 237 187 124 175 206 191 140
192 169 188 171 188 238 227 237 253 146 193 218 197 210 228 191 191 182 179 182 185 186 179 178 181 181 182 185 187 188 193 199 193 188 187 188 188 185 185 183 183 184 185 183 183 182 183 182 184 186 185 181 176 175 173 177 178 187 192 189 205 213 210 210 207 208 204 206 209 204 200 202 199 195 195 189 192 193 193 188 185 163 160 155 167 186 221 229 228 216 242 210 100 88 45 99 118
111 174 183 217 218 268 281 247 235 183 167 214 212 219 223 202 189 188 184 183 191 183 182 182 181 183 187 191 191 193 195 197 186 187 187 188 187 186 184 181 184 185 185 184 183 185 185 185 181 189 186 176 175 176 180 181 186 191 197 200 208 204 205 206 209 209 207 208 206 200 198 199 194 190 188 179 191 196 194 174 167 164 160 169 178 200 201 209 217 204 157 215 135 105 54 79 100
212 244 226 238 210 238 242 252 178 207 176 256 229 227 227 213 195 190 182 179 193 192 187 185 184 188 191 192 194 196 196 177 179 189 191 189 188 187 185 185 183 184 189 186 187 187 186 185 188 188 180 180 183 183 184 188 193 193 188 198 199 200 197 202 210 205 206 208 201 196 197 197 191 189 183 182 188 192 184 176 176 179 167 181 195 193 194 215 206 195 144 110 51 159 223 192 169
258 224 247 278 260 264 289 265 239 242 186 253 222 222 233 221 201 184 181 190 199 192 186 187 183 188 194 197 198 191 179 188 187 191 190 191 189 187 187 187 189 189 186 188 188 185 185 188 191 184 184 183 187 186 185 192 194 196 193 197 196 199 206 208 208 191 186 200 202 197 194 196 190 191 185 182 184 193 192 179 186 175 178 173 174 190 195 216 206 210 185 203 211 100 157 192 179
225 235 234 232 212 166 263 261 206 219 177 221 207 215 238 233 188 196 198 196 198 198 196 192 186 186 192 195 190 185 190 187 189 190 191 191 190 189 189 189 189 187 187 188 186 187 187 191 189 187 188 187 186 188 191 194 191 189 196 191 186 184 183 172 176 156 183 188 205 198 199 194 192 191 184 181 189 191 187 188 172 175 180 178 181 184 193 211 202 205 189 213 155 239 43 180 169
217 219 226 237 216 231 197 255 316 285 256 184 69 265 293 225 187 216 214 208 209 206 206 210 208 203 199 193 185 186 188 188 189 190 191 191 192 193 191 189 185 189 190 189 187 187 189 190 190 188 188 189 187 188 189 184 179 182 177 146 131 138 92 146 154 192 196 201 196 197 203 189 190 195 187 183 186 191 189 186 178 178 175 177 171 187 196 204 197 195 186 184 192 200 234 186 212
229 229 218 226 223 237 288 341 1 7 349 281 172 280 266 241 210 214 190 186 210 201 197 206 206 206 194 189 198 198 196 191 190 189 191 193 194 191 190 188 190 192 193 192 189 189 187 188 188 188 189 190 190 188 184 178 185 181 171 172 176 183 191 169 188 198 198 200 206 189 182 185 183 193 191 189 191 184 190 189 185 177 179 175 184 192 195 185 196 194 196 189 204 207 203 190 227
211 231 198 215 219 207 95 315 117 257 229 274 127 204 267 323 229 220 180 190 208 194 202 209 206 201 196 200 197 197 196 193 196 196 192 190 193 193 194 194 193 193 195 188 188 189 188 186 187 186 189 191 190 186 181 181 183 184 186 191 193 192 195 201 198 200 199 202 178 179 185 177 185 188 192 193 195 193 194 192 191 192 187 182 183 176 192 203 201 202 182 181 208 175 149 213 216
233 189 171 176 207 207 183 187 208 242 258 280 268 145 219 291 270 230 193 192 204 198 208 209 205 199 202 203 198 199 198 196 193 194 193 193 191 193 194 195 194 196 189 185 188 188 188 188 186 187 188 189 188 183 183 184 185 186 190 196 198 202 203 205 197 199 191 162 177 181 173 186 182 191 195 197 199 196 192 195 191 189 187 187 180 191 201 205 196 211 196 199 160 182 184 207 226
214 147 139 174 184 209 197 181 234 248 356 276 196 153 256 253 262 290 169 207 218 210 209 206 204 202 205 203 201 202 201 198 195 194 194 193 193 194 194 194 196 190 187 189 190 189 188 188 187 186 188 187 185 183 184 187 189 190 192 192 199 205 206 207 184 169 168 165 172 172 181 185 187 193 198 198 201 201 198 197 192 194 191 189 191 196 202 193 201 194 187 177 187 184 186 197 187
212 85 167 165 167 185 178 170 191 252 247 254 234 179 230 271 267 305 204 201 211 216 216 210 204 204 203 203 205 204 201 203 202 202 197 196 194 193 193 193 189 192 192 190 189 187 188 187 188 188 191 188 184 185 186 189 192 191 193 194 198 200 197 186 163 173 172 167 177 182 182 182 190 195 201 202 202 203 206 198 194 200 203 191 194 196 190 195 200 203 201 200 189 189 187 187 198
132 187 2 12 158 176 141 171 165 182 240 240 229 179 186 268 235 200 166 214 210 213 218 213 212 214 211 208 204 201 198 199 202 203 201 198 192 188 184 190 192 192 192 189 188 188 187 187 189 190 192 188 184 186 186 191 192 192 194 195 198 198 190 176 168 178 170 170 183 188 187 193 188 196 188 199 201 199 203 200 201 204 201 197 197 190 192 195 198 200 204 201 197 195 189 194 210
180 157 192 242 303 54 144 135 147 212 245 229 219 186 176 238 244 247 221 217 205 200 205 203 203 205 207 207 208 205 200 198 200 199 201 191 186 192 189 193 191 191 190 189 191 188 188 189 188 191 192 190 187 188 189 192 191 194 196 195 198 198 187 183 187 187 184 188 190 191 189 177 193 191 190 195 201 199 201 206 206 203 205 201 207 199 192 193 193 193 196 197 206 204 188 184 204
194 161 148 180 248 144 240 114 210 219 226 236 186 151 221 230 238 233 227 225 224 208 206 204 202 205 205 205 204 203 200 200 197 197 192 186 192 193 195 193 188 190 191 189 190 188 188 189 189 190 193 190 190 188 191 192 191 196 196 196 198 194 191 189 191 192 187 192 192 190 176 192 180 185 196 198 205 198 200 205 207 208 211 210 209 198 199 190 186 192 201 205 205 200 193 188 189
189 191 176 172 188 201 216 219 328 315 277 248 179 164 235 92 260 215 238 227 219 212 216 211 205 206 203 204 202 201 201 199 198 196 191 192 194 197 196 191 191 190 190 189 189 188 188 189 189 191 194 190 190 190 192 192 196 197 196 196 194 190 193 192 193 195 194 196 191 192 191 191 188 196 190 204 197 192 201 207 205 210 211 209 205 202 198 196 191 196 201 209 212 209 192 192 202
196 189 180 200 193 178 206 182 209 223 208 235 183 164 225 173 248 188 215 228 218 215 218 215 213 211 208 204 199 198 199 200 197 194 194 195 196 196 194 192 190 189 189 190 190 189 186 189 188 192 192 191 190 191 191 193 197 198 196 197 192 190 193 193 196 197 193 193 194 195 197 193 195 199 198 200 186 195 202 201 204 208 208 208 206 204 198 195 200 200 203 214 219 203 204 198 205
198 183 185 196 217 110 162 202 155 198 197 241 229 201 177 192 245 284 236 220 211 209 221 218 216 210 204 196 195 200 203 201 197 197 199 200 197 195 193 192 190 189 189 191 191 189 190 191 190 191 191 189 191 192 193 194 197 196 196 195 194 192 194 193 194 193 196 193 193 196 197 197 202 195 196 183 192 192 196 202 202 208 205 206 209 209 199 192 195 201 207 210 222 195 206 205 212
183 159 203 209 95 152 248 283 230 108 87 238 88 293 280 302 314 246 225 211 223 214 217 217 218 208 190 191 195 197 197 198 196 198 200 200 196 193 194 193 191 188 189 192 191 190 189 187 189 191 192 190 191 192 193 194 195 193 196 196 194 193 193 194 195 196 195 191 190 196 198 202 196 188 188 185 185 195 198 199 203 205 202 204 208 212 206 198 189 200 206 205 218 206 207 214 208
131 190 203 113 116 129 184 222 18 207 214 252 138 229 251 169 254 180 164 210 227 211 216 217 219 205 190 198 199 196 193 194 195 197 199 197 193 194 194 194 192 191 191 190 190 189 188 188 188 189 190 191 193 192 193 193 193 195 196 196 195 195 195 198 198 198 193 185 190 194 195 192 198 196 187 185 185 189 197 200 205 209 204 200 207 208 208 203 190 200 206 211 212 198 211 218 212
192 203 142 172 160 202 200 174 222 211 230 287 285 232 232 206 230 205 191 197 229 229 220 214 219 208 204 204 204 200 194 193 194 199 199 195 194 197 195 196 197 195 190 188 186 184 186 190 190 190 191 192 190 191 193 194 193 195 195 195 193 195 198 199 199 195 188 194 196 195 198 204 194 188 188 184 185 190 194 201 205 208 205 207 206 209 208 207 199 203 199 211 202 201 210 220 217
209 107 184 164 143 217 171 201 162 124 249 167 261 153 246 209 197 184 204 199 210 214 219 219 211 207 205 206 205 200 192 192 195 198 198 195 195 195 194 195 194 192 189 187 184 184 187 188 187 192 193 190 188 190 191 193 194 193 194 192 195 196 197 197 195 190 192 200 202 197 199 195 197 187 194 190 190 193 195 198 201 204 206 207 205 211 206 210 203 213 204 205 199 194 213 221 220
202 195 187 185 217 249 187 307 186 195 190 205 240 267 264 251 207 183 196 199 204 200 209 214 213 211 210 207 203 198 194 194 196 199 197 196 197 197 196 194 195 191 183 178 182 187 188 185 189 189 188 190 191 191 189 193 189 193 191 192 193 194 197 196 194 193 198 203 202 199 199 200 181 194 188 193 197 197 198 202 202 205 208 210 212 211 206 205 209 218 217 212 195 196 211 222 215
342 240 204 188 187 163 174 235 114 171 191 222 198 258 270 267 203 186 201 205 199 203 198 209 212 209 206 212 209 199 195 198 199 199 197 199 199 197 194 191 184 177 180 184 187 185 185 188 189 187 188 190 189 188 190 189 189 191 193 193 193 193 193 192 195 196 201 201 201 199 196 183 193 198 189 196 200 199 200 201 202 207 209 212 213 213 203 199 208 216 221 208 208 200 213 223 209